GFSNE_prec_cloud_024.txt.gz
Cloud_Cover
99 100 100 100 100 84 99 84 96 89 100 67 21 86 92 79 97 100 100 100 100 100 5 5 5 5 23 99 81 29 5 69 23 100 100 100 100 100
98 100 100 100 100 100 100 100 100 60 28 5 99 100 100 100 91 99 100 100 100 100 66 5 5 5 5 82 94 82 7 7 100 58 100 100 100 100
10 100 100 100 100 100 100 100 100 88 14 5 82 100 100 100 100 100 100 96 100 100 80 5 4 4 5 5 100 100 86 63 5 5 94 100 100 100
5 16 98 100 100 100 100 100 100 86 73 5 5 48 98 100 100 100 100 100 29 8 79 94 19 5 91 79 70 100 100 5 5 5 3 68 100 100
0 1 5 36 83 100 100 100 96 30 49 58 5 5 5 5 92 100 100 100 92 30 84 86 73 35 5 96 90 97 58 6 4 5 0 4 72 77
5 2 3 5 5 37 76 75 28 5 5 5 5 30 36 59 43 5 5 28 99 91 8 6 93 71 45 6 8 100 47 5 5 4 5 1 1 62
0 0 3 5 12 60 100 78 5 5 5 17 51 46 100 100 100 88 85 49 95 24 22 5 10 12 12 68 6 51 100 17 5 0 0 0 0 0
5 2 5 5 44 100 100 100 99 96 67 54 76 5 44 100 100 100 68 40 55 97 8 5 46 5 5 92 99 6 10 5 5 5 1 0 0 0
5 13 6 5 12 96 76 96 15 99 100 69 50 5 13 6 32 5 5 13 19 12 10 5 5 3 4 5 5 5 6 5 10 90 21 5 0 0
51 22 5 5 5 15 15 6 30 23 16 98 96 67 100 95 100 98 90 100 98 33 96 54 5 5 5 5 5 5 5 5 5 9 68 12 5 2
5 19 93 67 62 86 100 86 56 7 94 100 96 100 92 68 85 74 95 95 66 38 86 100 88 85 63 5 5 5 5 5 3 0 0 1 5 5
68 99 91 100 94 91 93 100 99 74 64 62 100 99 84 100 99 100 85 100 97 30 97 100 65 89 76 5 5 5 7 5 7 4 5 0 4 5
99 96 99 100 100 100 100 99 85 98 100 100 100 100 100 100 100 100 92 78 95 92 100 100 65 66 100 66 28 73 66 69 100 75 23 5 5 5
87 100 100 100 100 100 100 100 100 100 100 100 100 100 100 100 100 100 100 100 99 100 100 100 100 100 98 73 100 95 99 90 45 14 95 65 5 6
100 100 100 100 100 100 100 100 100 100 100 100 100 100 100 100 80 81 92 92 100 100 98 100 99 100 100 83 76 95 94 100 85 100 75 60 17 16
100 100 100 100 100 100 100 100 100 100 100 100 100 100 100 100 88 93 70 91 71 90 100 100 100 100 100 100 94 100 100 100 100 99 76 71 95 100
100 100 100 100 100 100 100 100 100 100 100 100 100 99 100 95 98 100 100 96 22 9 51 64 94 100 93 100 100 100 100 100 100 100 98 100 86 100
100 100 100 100 100 100 100 100 100 100 100 99 98 95 97 99 100 100 83 100 99 67 72 92 100 95 100 100 100 97 75 90 98 94 100 100 100 86
100 100 100 100 100 100 100 100 100 100 100 100 100 100 88 100 99 86 99 53 81 97 100 92 90 100 100 99 100 100 100 96 98 100 91 100 100 89
100 100 100 100 100 100 100 100 100 100 100 100 100 100 100 100 100 99 82 100 98 100 93 26 11 59 86 96 98 86 86 97 100 100 100 100 100 91
100 100 100 100 100 100 100 100 100 100 100 100 100 100 98 100 100 100 100 100 100 100 100 84 85 93 91 70 100 87 81 99 100 99 100 100 100 100
100 100 100 100 100 100 100 100 100 100 100 100 100 100 100 100 100 100 100 100 100 100 100 100 100 100 100 99 100 89 74 74 66 100 94 100 100 100
89 96 100 100 100 100 100 100 100 100 100 100 100 100 100 100 100 100 100 100 100 68 69 98 100 100 100 62 98 99 85 86 62 100 83 67 100 100

GFSNE_prec_cloud_030.txt.gz
Cloud_Cover
5 41 57 83 100 100 90 100 100 100 99 58 32 5 5 5 5 5 26 100 100 100 100 100 100 100 100 100 100 100 14 1 5 7 59 100 100 100
37 59 87 19 5 2 2 81 100 100 98 61 24 5 5 8 91 26 5 89 97 100 100 100 100 100 100 100 100 100 42 5 1 6 5 21 100 100
3 6 15 6 11 25 2 0 4 51 97 6 99 90 67 100 100 11 48 77 100 100 100 100 100 100 100 100 100 100 89 5 5 1 5 5 6 100
5 42 97 100 73 5 5 0 0 1 10 5 26 100 100 100 95 100 22 5 38 100 88 95 100 100 100 100 100 100 100 85 5 5 5 5 4 5
13 41 10 5 1 0 2 3 1 2 5 5 5 5 14 12 77 99 100 6 6 26 4 23 78 58 81 98 100 100 100 7 6 98 72 7 5 5
5 2 5 3 5 5 16 39 64 10 5 5 5 5 5 5 6 10 35 39 5 5 2 3 95 100 100 100 100 94 100 12 61 100 100 100 50 93
5 4 5 4 5 6 100 99 91 62 6 60 58 100 36 5 3 8 5 5 5 5 5 5 52 100 100 100 100 100 98 100 74 10 97 100 100 70
5 5 5 5 4 5 5 5 88 99 58 54 81 82 6 5 5 5 5 5 6 86 5 5 100 26 100 100 94 23 20 61 5 5 8 100 100 100
5 5 5 5 5 5 17 94 90 40 63 92 93 62 12 5 5 5 5 12 31 52 9 15 34 57 99 94 97 97 100 100 10 5 5 98 100 100
5 5 5 5 32 59 100 99 100 100 81 21 68 29 46 5 19 29 20 88 62 50 27 100 85 5 5 5 3 4 13 88 96 12 0 7 100 100
5 5 54 97 100 100 100 86 100 100 99 74 75 100 95 100 92 100 99 99 97 51 5 53 96 67 57 5 5 5 0 0 0 2 2 0 51 100
64 33 87 100 100 100 100 100 100 100 71 59 8 5 5 5 5 9 73 72 86 99 58 75 11 20 43 15 5 5 5 5 5 2 0 4 3 42
45 86 100 100 100 100 100 100 100 100 100 95 98 81 83 87 100 100 98 100 100 98 100 96 81 100 96 23 5 8 9 6 10 11 5 5 5 5
95 95 100 100 100 100 100 100 100 100 100 100 100 100 100 100 100 100 100 100 100 100 73 100 88 47 96 89 95 61 47 11 23 9 30 84 86 68
99 100 100 100 100 100 100 100 100 100 100 100 100 100 100 100 100 100 97 100 86 100 100 100 100 96 100 100 93 100 99 100 100 99 93 95 77 69
5 63 100 100 100 100 100 100 100 100 100 100 100 100 100 100 100 97 100 98 89 72 31 97 100 100 100 100 100 100 86 100 100 100 100 100 71 59
39 34 92 100 100 100 100 100 100 100 100 100 100 100 96 99 98 100 92 98 98 94 92 95 82 100 100 100 97 100 87 79 50 97 100 100 66 61
30 77 71 97 100 100 100 100 100 100 100 100 100 100 100 99 89 91 91 100 100 100 95 49 75 100 100 95 100 98 100 99 66 95 100 100 100 60
79 86 93 87 100 100 100 100 100 100 100 100 100 100 100 98 99 92 84 100 98 97 27 64 27 68 80 87 55 83 92 99 91 99 97 98 62 5
56 76 98 99 76 100 100 100 100 100 100 100 100 100 100 100 99 96 93 91 82 93 84 41 63 46 72 79 80 54 33 61 96 99 84 86 30 72
57 65 87 90 51 88 97 100 100 100 100 100 100 100 100 100 100 99 91 94 78 8 18 53 6 9 48 68 90 51 59 12 51 100 98 99 92 85
68 59 69 74 78 72 100 100 100 100 100 100 100 100 100 100 100 100 100 94 60 92 66 48 21 28 94 100 88 93 92 69 30 5 25 96 71 86
63 53 59 71 69 63 69 100 100 100 100 100 100 100 100 100 100 100 100 100 100 77 85 100 64 13 93 73 66 98 76 79 89 78 35 15 18 29

GFSNE_prec_cloud_033.txt.gz
Cloud_Cover
0 0 0 4 5 36 74 67 99 83 31 5 25 97 98 73 17 1 1 5 8 71 79 100 100 100 100 100 100 80 100 5 5 3 2 100 100 100
5 5 2 5 9 14 34 26 67 75 70 5 5 10 92 100 100 32 1 0 4 75 92 22 100 100 100 100 100 100 100 73 5 5 5 5 100 100
46 9 38 92 96 30 14 10 5 5 5 5 4 13 91 100 100 100 75 8 0 5 5 27 8 100 100 100 100 100 100 100 97 44 5 5 6 84
72 2 5 5 5 5 5 5 5 5 5 5 4 5 50 15 67 95 100 99 7 4 4 5 5 9 100 100 100 100 100 100 100 100 99 44 11 5
5 5 5 5 5 5 5 5 5 58 99 99 12 5 8 5 5 8 75 88 37 5 0 5 17 99 89 98 100 100 100 100 100 100 95 13 5 5
6 5 5 5 5 5 5 5 91 100 100 100 100 99 87 5 5 5 0 5 5 5 5 0 4 30 100 74 36 100 75 100 100 100 98 20 21 21
5 5 5 5 51 42 38 7 5 54 63 84 89 98 79 32 5 5 5 5 5 5 3 5 5 6 74 56 5 9 93 100 53 100 99 88 70 16
10 28 5 5 5 45 19 5 63 96 100 97 98 96 51 27 67 5 5 5 5 5 5 5 5 5 5 6 5 5 5 5 34 64 100 100 100 26
63 5 5 6 5 7 99 100 65 31 98 100 100 100 98 60 5 12 5 5 5 5 5 7 9 5 5 46 63 29 5 46 80 84 38 5 38 53
5 5 5 25 29 100 100 100 100 98 98 100 100 100 91 73 29 5 9 86 87 57 32 99 69 8 5 5 5 5 11 100 100 78 100 39 5 5
15 5 95 95 77 100 100 100 100 100 92 44 66 86 86 79 100 100 99 100 100 49 22 74 7 6 6 5 5 5 5 82 96 68 70 11 5 1
5 5 36 100 100 100 100 100 100 100 100 100 95 81 61 5 5 5 5 92 94 51 50 41 6 50 47 12 5 5 5 2 2 3 5 5 5 4
77 85 62 96 100 100 100 100 100 100 100 100 100 100 100 97 83 63 80 95 95 97 100 91 99 100 88 19 6 13 24 13 14 16 5 5 5 5
99 88 97 100 100 100 100 100 100 100 100 100 100 100 100 100 100 100 100 100 100 100 100 100 99 79 97 90 56 96 84 14 75 5 12 6 5 5
6 56 89 75 100 100 100 100 100 100 100 100 100 100 100 100 100 100 100 100 100 100 100 100 100 100 100 100 91 76 55 98 89 100 99 92 50 84
5 11 5 61 100 100 100 100 100 100 100 100 100 100 100 100 100 100 100 100 94 93 97 100 100 100 100 100 100 91 74 95 70 100 99 100 100 100
27 46 32 29 85 100 100 100 100 100 100 100 100 100 100 100 100 100 100 100 100 100 100 99 100 100 100 100 100 100 100 88 57 58 100 100 99 100
33 93 96 91 91 100 100 100 100 100 100 100 97 100 100 100 100 100 100 100 92 96 95 65 70 99 100 100 100 98 97 87 98 48 75 100 100 100
59 77 100 99 98 98 100 100 100 100 100 100 100 100 100 95 98 95 100 99 92 80 100 86 67 67 100 100 99 95 92 98 86 98 100 100 100 64
64 76 100 100 94 97 100 100 100 100 100 100 100 100 98 100 88 92 91 100 99 96 78 98 89 78 93 94 93 91 85 80 99 100 92 93 92 86
58 63 83 100 85 79 98 94 98 100 100 100 100 100 100 100 100 100 96 77 76 61 52 51 35 11 34 85 83 92 100 93 73 100 100 100 97 99
68 60 29 72 76 74 99 100 80 98 100 100 100 100 100 100 100 100 100 100 100 100 84 95 71 15 96 72 72 93 100 90 34 55 64 100 95 95
60 17 59 66 68 65 70 70 68 74 100 100 100 100 100 100 100 100 100 100 100 100 100 100 100 97 74 86 78 100 100 91 87 86 53 26 93 100

GFSNE_prec_cloud_036.txt.gz
Cloud_Cover
90 51 73 70 8 10 57 89 99 43 7 5 4 0 48 99 100 92 6 5 5 5 5 5 86 100 100 100 100 100 100 100 98 19 14 100 28 32
100 100 98 51 12 68 90 52 50 23 5 5 5 3 1 2 80 100 96 55 5 5 5 4 5 83 100 100 100 100 100 100 100 99 29 80 28 22
69 83 27 5 3 5 5 5 5 5 5 4 0 6 5 5 38 5 71 99 85 5 5 3 0 21 69 100 100 100 100 100 100 100 100 70 35 5
100 100 5 5 5 5 5 5 5 5 12 93 9 5 5 1 67 28 5 5 64 89 5 4 0 0 4 52 100 100 100 100 100 100 100 100 100 92
38 5 5 5 5 5 5 5 5 5 53 100 92 91 46 13 30 71 8 1 0 23 48 5 4 0 0 0 90 100 100 100 100 100 100 100 100 100
5 5 5 5 5 5 29 53 61 54 5 18 20 27 31 6 100 99 96 5 1 0 0 1 5 2 0 0 0 95 100 100 100 100 100 100 100 100
5 9 5 41 96 100 98 97 100 96 99 100 100 98 97 87 53 92 100 59 3 4 0 0 0 3 4 4 3 0 78 97 98 100 100 100 100 100
94 93 5 5 5 99 89 67 96 100 100 100 100 100 64 90 83 47 100 99 5 5 5 5 5 5 2 5 5 5 4 34 100 100 100 100 100 100
5 5 6 22 24 12 7 65 68 100 100 100 100 100 93 100 100 72 62 44 21 5 10 13 5 5 5 0 5 5 70 19 11 66 100 100 98 100
5 7 24 23 5 100 94 88 100 100 100 100 100 90 73 100 100 98 85 80 62 5 29 97 14 5 5 5 5 5 5 30 100 85 71 100 100 100
5 5 94 97 89 100 98 100 100 100 100 100 100 100 99 100 97 100 100 100 97 70 81 93 5 5 5 5 5 4 0 1 5 14 96 100 100 100
8 5 6 100 100 100 100 100 100 100 100 100 100 100 100 100 100 74 22 97 97 100 19 28 18 68 33 13 5 5 5 5 5 0 4 5 5 66
75 70 78 98 100 100 100 100 100 100 100 100 100 100 100 100 100 100 91 34 59 51 99 94 100 96 73 7 15 20 5 5 5 5 5 0 0 73
33 33 74 100 100 100 100 100 100 100 100 100 100 100 100 100 99 100 100 100 100 100 100 100 100 100 100 100 100 92 91 30 14 5 5 5 5 5
5 7 52 8 8 14 88 100 100 100 100 100 100 100 100 100 100 100 100 100 100 100 100 100 100 100 100 100 97 97 100 99 75 98 96 83 12 100
5 5 5 5 5 17 78 100 100 100 100 100 100 100 100 100 100 100 100 100 100 100 100 100 100 100 99 100 91 100 86 99 98 100 100 100 100 100
33 38 16 14 5 77 33 98 100 100 100 100 100 100 100 100 100 99 100 99 100 100 100 100 100 98 100 100 93 89 91 80 73 35 96 94 99 100
5 83 100 100 92 98 95 71 100 100 100 100 100 100 100 100 98 81 96 100 100 100 100 100 100 100 100 94 95 95 74 93 66 76 86 100 98 100
13 61 100 100 100 72 95 87 93 100 100 100 100 100 100 100 100 99 94 90 84 99 100 91 100 97 100 100 98 96 88 62 79 86 91 100 100 98
9 63 96 100 97 65 96 100 84 69 96 100 100 100 100 100 100 92 96 88 80 72 82 95 94 98 100 86 88 82 67 12 77 84 84 84 96 100
5 10 58 83 83 17 89 100 99 74 74 88 99 100 100 100 100 100 100 100 79 67 65 62 71 84 90 98 76 54 80 91 62 82 99 95 90 94
46 9 5 9 69 61 92 100 89 75 48 58 100 100 100 100 100 100 100 100 100 100 100 98 92 85 94 94 79 94 100 95 95 100 100 99 88 86
63 28 47 46 50 68 21 82 60 96 22 30 56 100 100 100 100 100 100 100 100 100 100 100 100 100 100 100 100 100 90 100 96 94 91 92 100 100

GFSNE_prec_cloud_042.txt.gz
Cloud_Cover
93 95 100 100 100 100 100 100 100 98 55 31 88 98 100 100 100 44 9 5 8 5 78 49 6 5 2 2 6 100 100 100 93 100 100 100 6 5
89 100 100 100 100 100 100 100 100 96 100 73 66 100 100 100 100 100 47 5 4 2 1 87 61 98 7 5 5 97 100 100 93 100 100 100 92 24
100 100 100 100 100 100 100 100 100 100 100 9 97 100 100 100 100 100 99 100 100 96 9 5 5 95 100 66 5 22 100 100 100 98 100 100 100 97
100 98 100 100 100 100 100 100 100 100 100 99 99 100 100 100 100 100 100 100 100 100 100 5 0 8 100 100 99 17 92 100 100 100 100 100 100 100
100 100 98 96 83 97 99 100 100 100 100 98 100 100 100 100 100 100 100 100 100 99 36 6 0 0 12 100 100 100 7 97 100 100 100 100 100 100
98 84 42 70 55 33 10 28 99 100 100 100 100 100 100 100 100 100 100 100 100 100 99 75 48 5 0 20 100 100 98 28 100 100 100 100 100 100
6 5 5 3 2 48 28 76 100 100 100 100 100 100 100 100 100 100 100 100 100 100 100 100 99 92 82 8 8 100 100 70 18 100 100 100 100 100
5 1 5 5 32 6 84 62 60 98 100 100 100 100 100 100 100 100 100 100 100 100 100 100 99 99 100 100 98 18 92 99 57 5 100 100 100 100
5 5 5 26 99 100 100 76 91 100 99 98 100 100 100 100 100 100 100 100 100 100 100 100 100 100 89 100 20 4 42 7 5 5 5 82 96 100
13 5 63 100 100 82 100 100 100 100 100 100 100 100 100 100 100 100 100 100 100 100 100 100 100 100 100 100 81 3 0 5 5 5 4 5 44 81
84 93 93 99 100 83 100 100 100 100 100 100 100 100 100 56 74 100 100 100 100 100 100 100 96 96 100 100 100 16 0 0 4 5 5 5 5 5
94 97 100 62 7 100 100 100 100 100 100 100 100 100 100 100 98 98 100 100 100 100 100 100 100 100 100 99 100 99 49 0 0 2 5 5 5 5
94 96 100 21 38 100 87 100 96 99 100 100 100 100 100 100 100 100 100 100 100 100 100 70 100 100 91 100 93 70 94 97 19 2 5 5 5 5
98 99 85 5 5 14 28 7 59 99 100 100 100 100 100 100 100 99 96 99 97 100 100 100 99 100 100 100 100 95 99 97 87 98 50 4 1 5
94 12 5 5 5 5 4 5 44 62 96 100 100 100 100 100 100 100 100 100 100 94 82 86 94 100 100 100 100 100 100 100 100 96 78 100 59 5
100 11 9 5 5 5 16 5 5 17 82 100 100 100 100 100 100 100 100 100 100 100 100 100 100 100 100 100 100 100 100 100 100 100 100 72 100 93
5 86 100 82 5 5 5 5 5 5 36 98 100 100 100 100 100 100 100 100 100 100 100 100 100 100 100 100 100 100 100 100 100 100 77 98 63 68
44 99 100 100 100 18 5 5 5 5 5 32 100 100 100 100 100 100 100 100 100 100 100 100 100 100 100 100 100 100 100 100 100 100 95 98 98 99
91 100 100 100 98 63 5 5 5 5 4 5 66 100 100 100 100 100 100 100 100 100 100 100 100 100 100 100 100 100 100 100 95 73 86 100 100 100
86 100 100 100 100 84 7 5 5 7 7 5 21 99 100 100 100 100 100 100 100 100 100 100 100 100 100 100 98 98 86 84 100 100 98 63 99 88
100 100 100 100 100 100 98 93 74 82 11 5 63 83 100 100 98 99 100 100 100 100 100 100 100 37 95 100 100 98 86 10 50 92 88 100 100 99
100 100 100 100 100 100 100 100 97 100 84 6 5 83 98 100 100 96 100 99 100 99 100 100 100 100 100 100 100 82 90 78 69 71 24 36 100 100
100 100 100 100 100 100 100 100 100 100 97 6 5 26 85 90 74 91 74 86 76 100 100 100 100 100 100 100 100 100 100 96 100 90 82 13 20 93

GFSNE_prec_cloud_048.txt.gz
Cloud_Cover
27 5 81 11 5 100 100 29 78 23 5 1 5 0 3 5 5 5 5 5 5 0 0 0 0 0 3 5 0 0 0 0 5 5 22 87 100 100
5 5 74 8 82 95 85 5 30 73 35 5 4 5 5 4 1 0 0 0 0 0 0 0 0 0 5 10 4 0 0 0 0 2 5 100 100 100
5 19 23 80 74 57 10 5 50 99 71 5 5 2 5 5 1 0 0 0 0 0 4 4 1 5 5 57 5 3 0 0 4 0 4 90 100 100
98 100 50 6 38 5 79 54 5 5 5 1 0 0 4 5 2 0 5 4 2 2 1 4 5 5 7 100 97 4 0 0 5 5 0 4 73 100
96 22 90 86 43 42 5 0 1 0 1 5 5 5 5 2 5 5 5 6 5 13 5 82 98 100 100 86 5 5 0 0 3 98 5 5 55 100
92 99 84 5 4 5 5 5 1 4 5 5 5 5 5 5 5 80 83 12 5 5 5 5 5 69 100 100 57 5 0 0 1 100 99 20 67 100
90 95 12 5 5 5 5 5 5 5 5 5 6 35 29 12 22 40 42 5 5 5 5 5 8 85 12 100 100 100 13 5 3 100 100 24 95 100
2 5 5 5 5 5 5 5 28 6 59 97 100 100 19 96 98 66 72 33 26 38 79 4 97 24 98 100 100 100 100 24 6 80 100 95 86 100
5 21 5 5 5 5 4 3 0 3 68 96 100 100 100 32 29 5 5 10 48 5 39 5 95 5 100 100 98 96 100 32 5 6 100 100 61 55
92 42 5 24 5 5 4 0 1 5 5 28 97 78 16 5 5 11 74 75 5 5 78 63 96 5 53 97 80 93 83 5 0 0 100 100 100 91
5 5 61 64 5 5 5 4 5 4 5 52 14 5 28 99 95 100 79 98 75 22 100 95 91 74 55 61 91 13 5 0 0 3 66 100 100 100
62 46 82 72 5 5 5 5 5 5 4 5 5 5 84 95 100 100 98 95 98 20 100 56 75 98 91 100 95 57 5 5 5 5 5 14 89 100
100 97 83 88 5 4 4 5 5 4 2 5 5 8 95 100 98 99 100 98 70 78 48 64 87 100 100 100 99 100 74 28 5 5 5 5 5 12
100 100 100 67 5 5 2 2 4 5 8 12 5 70 8 75 95 99 82 95 98 86 100 89 100 100 100 100 100 100 100 84 19 7 5 5 3 5
75 100 100 100 57 5 2 5 5 5 54 5 5 23 5 49 94 100 68 5 95 100 100 100 90 75 85 100 100 100 100 100 92 5 5 39 9 6
53 89 100 100 62 52 6 14 56 24 63 13 5 5 64 18 40 99 100 54 81 100 100 100 100 100 100 86 100 100 100 100 100 43 5 5 6 57
99 99 100 100 100 88 57 80 52 33 17 5 5 5 80 21 44 84 100 100 92 97 100 100 100 100 100 100 100 97 100 99 91 27 5 5 5 6
91 39 100 100 100 100 57 5 81 38 35 5 11 5 100 96 10 51 100 100 93 48 82 100 100 100 100 100 100 100 100 100 100 98 5 17 33 65
89 5 17 94 100 100 89 71 36 14 14 12 66 15 93 100 76 62 76 100 100 31 94 79 100 100 100 100 100 100 100 100 97 99 97 97 88 100
100 82 69 90 99 100 87 100 92 6 14 99 5 23 89 93 86 99 39 89 100 100 72 97 100 100 100 100 100 100 100 100 100 100 100 100 94 98
75 87 87 99 99 100 100 100 79 29 67 22 5 27 17 97 7 98 68 45 98 100 100 100 63 95 97 100 100 98 100 100 100 100 100 100 100 96
100 99 100 100 100 100 100 100 100 99 45 36 94 68 19 45 15 80 83 59 35 74 100 100 94 100 92 100 100 97 100 88 100 100 100 100 100 93
100 100 100 100 100 100 100 100 100 100 100 87 35 6 72 7 11 97 96 100 20 93 8 98 100 71 94 100 100 100 99 100 100 88 89 100 94 74

GFSNE_prec_cloud_051.txt.gz
Cloud_Cover
5 7 44 86 99 66 99 100 99 93 5 4 1 5 5 5 0 2 0 0 0 0 0 0 2 0 3 1 5 12 6 7 5 5 5 5 5 35
16 96 72 82 95 100 100 100 100 77 5 5 5 5 5 5 5 5 0 0 0 0 0 0 0 1 0 3 4 5 5 5 5 5 2 2 5 39
58 98 100 100 100 96 99 34 5 5 5 5 5 2 0 0 0 0 0 0 0 0 0 0 0 0 0 2 0 10 24 5 5 2 0 4 5 40
100 100 100 100 100 100 70 5 5 5 5 0 0 0 0 0 0 0 0 0 0 3 4 0 4 67 16 16 5 5 21 5 5 0 0 1 3 29
100 100 100 100 100 43 5 2 5 5 3 1 0 0 0 0 0 0 0 5 5 5 5 0 1 0 1 30 20 94 80 15 5 0 0 1 5 9
100 100 100 100 33 5 3 5 5 2 2 5 1 5 5 2 5 5 28 5 5 2 2 5 4 0 0 23 13 73 100 98 3 5 0 1 24 5
99 100 70 4 5 2 5 5 5 5 5 5 5 12 35 5 43 97 96 10 5 0 4 3 1 0 4 5 5 96 100 98 39 10 1 5 100 14
95 38 0 4 2 5 5 5 5 5 5 5 71 100 51 99 95 5 5 5 72 5 5 4 4 1 1 5 5 93 100 100 100 95 5 6 100 39
40 5 5 5 5 5 5 5 3 0 2 5 26 89 99 60 5 5 5 14 98 11 78 58 5 5 4 0 5 100 99 99 100 93 6 17 100 67
32 5 5 5 54 5 5 5 2 1 0 4 99 66 67 9 16 96 76 76 96 34 100 96 5 5 5 5 5 94 100 98 97 72 5 9 100 99
68 5 5 5 5 5 34 11 4 4 2 2 0 5 5 5 98 100 96 100 89 28 27 66 14 5 6 66 83 53 100 100 100 14 5 0 84 100
5 5 5 16 5 8 87 19 8 3 5 2 1 5 5 5 61 97 91 100 100 83 26 96 5 45 62 92 100 49 100 100 100 34 5 5 50 100
5 5 5 47 7 86 100 74 5 5 5 5 5 5 5 5 5 5 77 98 100 98 93 100 72 52 85 100 100 100 100 100 100 56 42 7 7 100
5 5 5 5 86 98 100 85 5 5 7 6 5 5 5 5 6 6 56 26 38 50 100 100 98 85 90 90 100 100 100 100 100 100 99 60 4 99
31 17 5 40 77 94 100 81 5 5 5 39 5 5 5 25 24 49 79 76 5 68 100 100 100 100 100 97 100 100 100 100 100 100 36 23 8 55
5 91 37 36 77 100 100 99 89 66 5 40 5 5 5 5 5 32 73 79 88 97 98 98 100 96 94 100 100 100 100 100 100 100 100 17 29 82
48 83 89 98 54 100 100 100 100 98 13 5 5 6 5 5 5 5 61 92 98 98 98 100 100 100 100 100 100 97 98 97 100 100 100 90 6 21
96 92 99 81 92 100 100 100 100 82 74 37 5 5 5 38 5 5 5 96 98 100 51 94 100 100 100 100 100 100 100 100 100 100 64 85 99 96
64 66 69 34 76 96 100 100 100 100 100 84 40 5 44 6 19 8 5 15 100 100 100 100 100 100 100 100 100 100 100 100 100 99 98 95 86 100
94 100 86 31 6 54 90 100 100 100 100 100 97 44 49 55 58 13 5 40 24 98 100 98 50 59 100 100 100 100 100 100 100 100 100 100 100 100
100 100 100 98 33 49 81 100 100 99 100 100 100 87 57 59 28 23 29 5 7 13 96 100 100 96 90 98 95 95 100 100 100 100 100 100 100 100
100 100 100 100 100 93 93 82 98 100 100 100 86 78 72 67 36 55 60 61 31 56 11 72 100 100 100 100 94 93 98 100 100 100 100 100 100 100
100 100 100 99 89 73 87 87 96 100 100 100 87 60 93 68 6 55 70 48 46 5 5 6 54 100 100 86 100 93 100 100 100 88 94 100 100 100

GFSNE_prec_cloud_054.txt.gz
Cloud_Cover
47 21 87 76 99 91 90 98 100 96 6 5 5 5 5 5 5 5 5 5 5 5 5 1 0 2 5 6 5 6 65 100 100 100 100 39 50 5
43 19 34 61 100 85 96 99 100 100 36 5 5 5 4 0 0 0 0 0 0 0 0 0 0 5 6 15 5 5 65 33 32 97 99 59 5 5
55 35 62 98 95 98 98 90 100 100 55 5 2 0 0 0 0 0 0 0 0 0 0 4 14 3 2 17 5 4 5 5 6 70 59 99 5 5
82 97 100 100 100 100 100 100 66 6 1 0 0 0 0 0 0 0 0 0 0 3 5 0 0 5 0 0 1 0 5 5 5 5 6 5 3 2
100 100 100 100 100 100 100 43 5 0 3 5 0 0 0 0 1 2 4 5 5 4 0 0 0 0 5 5 5 3 0 89 52 28 5 5 0 1
100 100 100 100 100 92 5 5 1 4 5 5 3 5 5 4 5 13 49 5 0 0 0 0 4 5 2 0 0 0 0 4 84 88 99 3 1 0
100 100 100 80 7 5 5 1 3 5 5 5 5 8 44 5 49 59 5 5 4 0 4 5 5 2 0 4 0 0 0 0 12 86 100 75 2 5
99 26 5 5 4 3 5 5 29 5 5 5 5 5 28 71 35 5 5 11 96 5 31 5 28 5 5 5 5 0 0 4 94 96 99 100 5 4
5 26 7 6 5 5 5 68 72 5 5 5 7 14 59 5 8 17 11 97 97 16 82 84 5 5 5 5 4 4 5 18 100 100 100 88 5 0
85 78 74 43 5 5 17 98 99 10 5 1 5 5 2 40 97 95 100 91 62 5 27 97 5 5 5 5 7 47 5 53 100 100 100 95 3 0
58 100 100 55 5 17 80 100 100 45 5 4 5 5 5 5 74 78 25 96 84 39 5 87 8 8 5 5 70 68 37 56 98 100 100 97 5 0
14 81 44 5 5 5 64 100 100 63 5 5 0 0 2 3 5 5 99 100 100 47 10 74 18 95 56 6 64 19 100 100 100 100 100 100 5 1
40 5 20 5 5 5 78 100 98 97 72 6 5 5 5 5 5 5 16 98 89 99 88 100 95 100 100 77 52 18 100 100 100 100 100 100 5 3
13 5 93 28 5 5 92 100 100 100 97 19 5 5 5 5 5 5 5 5 9 60 5 100 100 100 100 100 98 99 100 100 100 100 100 99 8 5
31 15 99 88 70 5 74 99 100 94 85 59 5 5 5 5 5 5 5 39 20 58 46 91 100 98 100 100 100 100 100 100 100 100 100 100 86 25
55 99 99 90 99 54 68 90 99 100 92 100 96 8 9 5 5 5 5 6 68 71 34 42 86 82 100 99 100 100 100 100 100 100 100 32 43 90
99 95 100 100 96 35 58 88 43 100 100 100 100 90 35 42 24 5 6 8 14 77 87 7 81 99 91 100 100 100 100 100 100 99 98 98 28 95
100 86 99 100 99 100 100 98 72 100 100 100 100 94 50 63 65 15 29 60 25 52 98 68 100 82 99 100 98 86 100 100 100 100 100 100 90 82
99 73 93 93 98 100 100 89 100 100 96 100 100 100 86 52 60 59 30 8 5 5 98 100 90 77 100 100 100 67 100 99 100 100 100 100 100 96
100 98 100 100 78 100 100 100 100 100 75 99 99 100 100 90 68 57 24 71 36 5 17 100 100 94 100 100 100 100 100 100 100 100 100 100 100 100
100 100 100 100 100 78 99 100 100 100 96 100 100 99 98 100 78 96 73 52 61 7 5 48 100 100 100 100 98 100 100 100 100 100 100 100 100 100
100 100 100 100 100 100 99 100 100 92 72 95 97 100 100 98 88 58 72 97 58 59 6 5 62 100 100 100 100 100 100 100 100 100 100 100 100 100
100 100 100 100 100 100 100 100 100 100 86 82 90 65 85 69 63 56 71 67 97 5 5 5 8 71 82 100 100 100 100 100 100 100 100 100 100 100

GFSNE_prec_cloud_060.txt.gz
Cloud_Cover
5 5 6 14 46 5 3 5 67 99 49 26 64 18 97 20 1 0 0 0 0 0 5 0 3 5 5 6 10 72 100 100 100 100 100 100 100 100
14 58 77 34 5 5 5 5 8 100 98 5 5 5 4 0 0 0 0 0 0 0 5 5 5 9 79 100 98 100 100 100 100 100 98 100 100 100
71 42 56 32 50 76 5 5 5 31 28 5 5 0 0 0 0 0 0 0 0 5 5 5 7 25 10 5 5 5 11 31 50 98 100 100 100 100
100 72 83 99 84 6 5 5 5 5 5 5 0 0 0 0 0 1 5 5 5 5 5 0 0 5 5 5 5 5 5 5 5 5 6 5 8 88
67 92 87 17 5 5 44 5 45 82 5 4 0 0 0 0 2 5 5 5 5 0 0 0 5 5 5 5 19 21 5 5 5 5 5 5 5 5
24 5 5 5 5 5 5 5 41 5 5 5 5 3 0 3 5 5 5 5 4 3 3 2 4 4 5 5 5 5 5 5 5 5 5 5 5 3
0 2 3 5 5 5 5 5 18 5 5 5 5 5 5 5 5 5 5 5 5 4 5 4 5 5 5 5 5 5 5 5 5 5 5 5 5 5
5 5 1 5 5 17 76 88 88 5 5 5 5 5 32 5 8 5 32 97 95 6 5 5 5 5 5 5 5 5 5 5 6 5 5 5 5 5
5 5 5 5 5 88 100 100 65 5 5 5 5 5 32 33 6 43 99 100 90 6 23 52 5 5 5 1 4 5 5 5 27 11 5 5 5 5
5 5 5 5 5 28 99 85 79 64 5 40 5 5 5 40 21 35 75 70 5 5 5 95 5 5 5 5 5 5 5 5 5 8 5 8 5 5
5 5 5 5 5 30 98 82 34 5 38 9 5 5 29 31 5 5 5 56 72 17 3 100 13 5 5 5 5 5 5 5 5 5 5 63 76 99
5 5 5 5 5 14 84 5 5 7 5 5 5 5 5 58 74 6 5 91 95 20 4 10 16 41 53 5 70 100 37 5 5 74 84 100 100 100
68 25 43 5 5 13 72 63 14 19 78 28 24 31 19 24 23 13 5 5 20 94 5 100 88 94 100 68 6 99 12 5 48 95 100 94 80 53
94 11 100 94 91 36 70 27 100 83 100 100 99 100 60 74 54 99 20 13 5 17 5 24 99 98 99 100 92 32 7 5 34 88 100 98 100 100
54 62 89 100 100 75 100 72 100 80 94 100 100 100 66 86 99 100 53 46 7 5 3 5 60 98 100 100 100 95 96 11 22 56 100 100 100 100
100 99 100 100 100 100 100 100 100 99 80 100 100 100 100 100 100 91 100 54 10 5 3 16 99 100 37 30 70 97 97 98 62 100 100 96 100 100
97 100 100 100 100 100 100 98 100 100 99 99 100 100 100 100 97 75 80 55 36 5 5 5 4 17 32 6 77 98 96 98 100 100 95 100 100 100
100 100 100 100 100 99 81 99 100 100 100 99 100 100 97 98 95 76 76 64 96 32 5 5 5 5 99 7 57 97 94 86 99 89 100 100 100 100
100 100 100 100 100 100 98 95 100 100 100 90 100 100 100 100 98 100 93 82 98 35 6 5 5 5 99 86 14 95 100 96 48 90 95 99 100 100
97 100 100 100 100 100 100 94 100 100 100 100 100 95 100 100 98 100 100 100 100 65 9 5 5 32 99 99 98 90 98 100 100 100 92 65 89 100
99 100 100 100 100 100 100 99 100 100 100 100 100 100 100 100 100 100 100 100 100 71 43 36 5 5 70 87 100 96 90 100 100 100 100 99 90 99
100 100 100 100 100 100 98 100 100 100 100 100 100 100 100 100 100 100 97 98 98 97 68 40 5 5 7 83 100 100 100 97 100 100 100 100 97 97
100 100 100 98 100 100 100 100 100 100 100 100 100 100 100 100 100 100 88 98 96 98 55 41 39 28 5 29 40 79 82 98 100 100 100 100 100 100

GFSNE_prec_cloud_066.txt.gz
Cloud_Cover
100 98 29 56 5 5 5 5 5 5 5 2 6 73 86 100 97 51 5 0 0 0 0 0 5 5 5 5 33 73 99 98 100 100 100 100 100 100
97 92 100 85 52 26 42 5 5 5 5 5 5 68 100 98 84 5 5 0 0 0 0 0 5 5 5 5 26 63 88 100 100 100 100 100 100 100
84 25 76 96 60 52 5 5 5 5 5 5 47 78 38 93 97 83 5 0 0 0 0 0 5 5 5 5 5 5 5 7 74 90 99 100 100 100
100 99 91 40 88 74 69 5 5 5 25 9 25 75 100 100 100 86 5 0 0 0 0 0 5 2 5 5 5 5 14 33 36 74 99 100 100 100
100 97 98 100 100 98 33 5 5 8 58 99 41 100 100 100 100 100 16 0 0 0 0 0 1 1 5 5 5 5 5 5 5 5 7 35 78 70
100 96 100 100 92 55 5 5 5 15 78 100 100 100 100 100 100 100 86 4 0 0 0 3 3 3 0 5 5 5 5 5 5 5 5 5 5 5
100 100 85 78 89 5 6 18 6 10 70 83 100 100 100 100 100 100 93 5 1 4 5 6 7 44 38 99 74 60 12 5 5 5 5 5 5 32
89 39 71 46 28 52 74 10 7 5 5 92 100 100 100 100 100 100 100 5 4 5 5 10 5 69 53 100 93 5 0 5 5 5 5 5 5 5
16 15 7 10 89 90 88 29 5 5 5 5 90 100 100 100 100 100 98 43 14 17 5 11 68 100 100 100 81 3 5 5 5 5 5 5 5 5
23 43 7 55 96 100 100 100 100 100 98 73 82 92 100 100 100 100 100 97 92 78 64 80 87 100 100 100 23 5 5 5 5 5 5 5 5 5
77 6 5 5 55 95 98 92 68 100 100 59 96 98 100 63 100 96 97 100 100 98 90 95 79 100 100 100 100 81 5 5 5 68 34 5 5 5
6 5 5 42 9 71 67 77 100 60 100 100 97 26 81 91 100 100 100 100 100 98 93 78 95 92 100 100 99 96 100 100 100 100 100 93 63 96
5 5 5 7 5 18 97 100 98 76 100 92 100 100 100 100 100 100 100 100 100 100 100 92 100 100 100 100 100 100 100 100 100 100 100 100 100 100
5 5 5 5 5 5 30 100 76 100 100 100 100 100 100 100 100 100 100 100 100 100 100 100 100 100 100 100 100 100 100 100 100 98 82 100 90 100
5 5 5 5 5 5 83 93 100 100 100 100 100 100 100 100 100 100 100 100 100 100 100 100 100 100 100 100 100 100 100 98 95 78 78 95 98 100
10 6 70 22 5 7 49 93 100 100 100 100 100 100 100 100 100 100 100 100 100 100 100 100 99 100 100 100 100 100 100 100 100 99 100 96 89 100
87 76 81 91 62 100 93 85 100 100 100 100 100 100 100 100 100 100 100 100 100 100 100 100 100 100 100 100 100 100 100 100 100 99 99 100 90 100
81 100 93 99 100 100 50 97 100 100 100 100 100 100 100 100 100 100 100 100 100 100 100 100 100 100 100 100 94 100 100 100 99 99 100 98 99 100
100 100 100 100 100 86 100 97 100 100 100 100 100 100 100 100 100 100 100 100 100 100 100 100 100 100 100 100 100 53 100 100 100 100 100 100 100 100
100 100 100 100 100 100 100 100 100 100 100 100 100 99 100 100 100 100 100 100 100 100 100 100 100 100 89 100 100 94 18 71 100 100 100 95 100 84
100 100 100 100 100 100 100 100 100 100 100 100 100 100 100 100 100 100 100 100 100 100 100 100 100 36 49 77 100 100 100 81 68 90 94 96 100 100
100 100 100 100 100 100 100 100 100 100 100 100 100 100 100 100 100 100 100 100 100 100 100 100 99 52 56 100 100 97 97 97 78 86 96 93 95 100
100 100 100 100 100 100 100 100 100 100 100 100 100 100 100 100 100 100 100 100 100 100 100 100 100 57 60 62 72 100 99 100 94 100 99 100 100 64

GFSNE_prec_cloud_072.txt.gz
Cloud_Cover
100 100 100 100 100 100 96 88 43 5 5 34 5 5 3 5 5 5 4 4 2 5 5 5 0 0 0 0 4 5 5 5 21 55 90 100 100 100
100 100 100 100 100 100 100 100 99 68 5 5 5 5 5 5 5 37 5 79 93 60 43 1 0 0 0 0 0 2 5 5 5 15 63 98 100 100
100 100 100 100 100 100 99 52 79 65 6 5 5 5 5 5 5 5 19 86 5 5 1 5 0 0 0 0 0 0 0 5 5 5 64 100 100 100
100 100 100 100 100 100 100 100 100 100 5 5 5 5 5 5 6 25 5 76 81 46 5 5 0 0 0 0 0 0 0 1 5 11 36 92 100 100
100 100 100 100 100 100 100 100 60 5 5 5 5 5 5 5 13 2 5 100 81 92 45 6 5 1 4 1 5 5 5 2 5 5 5 5 5 50
100 100 100 100 100 100 77 19 33 13 5 5 27 5 5 5 51 100 49 100 45 30 100 34 5 18 1 57 59 5 82 99 5 5 5 5 5 5
100 100 97 100 100 68 42 75 65 10 5 5 5 5 5 12 31 32 94 15 39 88 98 43 56 5 28 70 46 5 74 100 42 5 3 5 5 9
100 100 100 76 23 6 5 87 99 95 69 100 92 100 36 8 100 100 98 9 23 5 99 5 7 96 78 5 9 100 69 19 70 74 3 5 5 5
100 100 99 77 36 21 5 5 5 17 83 100 100 93 93 75 100 100 100 99 7 6 100 16 96 8 42 6 96 30 5 100 100 21 0 0 3 5
83 58 63 73 17 14 30 14 10 23 5 94 100 93 44 68 100 100 100 41 5 30 97 45 18 5 38 79 99 45 5 85 100 92 5 5 5 5
13 10 81 94 66 8 5 5 9 5 5 5 11 92 96 50 92 100 100 100 95 6 14 97 5 5 88 86 100 94 61 98 95 100 100 68 5 5
26 44 91 29 89 45 5 5 5 5 5 5 5 5 4 35 92 100 100 100 98 30 99 36 6 89 11 100 100 77 5 7 99 100 97 98 45 5
35 38 95 57 20 15 8 17 41 12 17 11 5 5 5 6 97 73 100 100 100 100 81 77 69 9 70 22 100 79 14 5 46 23 0 5 46 72
100 55 17 48 61 51 7 40 77 95 77 100 96 61 55 100 71 100 100 93 100 100 100 88 6 5 36 45 74 62 5 5 55 15 5 7 33 82
96 100 100 69 23 56 9 6 70 94 100 100 77 52 5 75 100 100 100 100 100 100 94 53 72 59 48 69 56 19 5 5 5 5 81 90 80 50
81 41 69 65 56 5 5 5 6 69 93 100 100 91 91 95 100 100 100 100 99 61 54 77 79 48 100 85 37 11 5 5 5 38 95 91 18 78
100 96 75 25 5 5 5 5 10 70 92 85 100 92 100 99 100 100 100 97 54 82 47 55 85 92 100 99 90 9 58 25 79 90 34 5 5 66
100 67 50 5 5 5 5 17 77 94 100 90 93 100 98 100 96 100 91 82 100 96 18 61 93 99 100 98 40 98 100 98 75 5 5 43 5 59
57 63 66 9 5 6 66 75 100 100 90 100 100 100 100 100 100 100 100 100 97 88 48 86 74 100 100 100 97 84 27 49 7 5 82 14 6 5
9 9 43 60 5 43 78 97 100 100 99 98 100 100 100 100 100 100 100 100 88 100 95 98 93 95 96 100 99 86 57 65 66 7 5 61 16 77
85 90 6 5 74 27 98 100 100 100 99 98 100 100 100 100 100 100 92 81 99 100 90 100 99 100 100 99 100 58 78 89 66 8 7 17 48 82
100 52 11 59 83 100 100 100 100 100 100 100 100 100 100 100 100 100 100 100 100 100 100 100 100 100 96 100 100 78 85 99 80 27 20 5 33 81
65 72 100 100 82 100 100 100 100 100 100 100 99 100 100 100 100 100 100 100 100 100 100 100 100 100 100 100 100 98 73 77 69 35 66 91 100 10

GFSNE_prec_cloud_075.txt.gz
Cloud_Cover
100 100 100 100 100 100 100 100 100 14 84 100 100 47 72 100 7 5 5 5 4 0 5 0 5 5 3 5 0 0 0 0 5 5 5 64 100 100
100 100 100 100 100 100 100 100 100 100 100 100 100 100 100 85 27 5 5 1 0 0 5 5 61 20 5 5 0 0 0 0 0 5 5 66 98 100
100 100 100 100 100 100 100 100 100 99 46 100 100 79 68 10 5 5 4 3 1 16 5 5 5 5 5 22 3 0 0 0 0 3 5 68 100 100
100 100 100 100 100 100 100 100 52 99 94 16 73 9 5 5 5 5 5 20 98 80 2 99 100 98 81 11 95 0 0 0 0 5 5 5 5 7
100 100 100 100 100 100 90 93 84 40 78 12 28 39 11 5 5 5 5 5 5 18 92 48 94 96 96 5 15 1 4 0 0 5 5 5 5 5
100 99 91 37 44 91 88 44 30 30 5 5 5 5 28 85 60 40 5 99 6 96 99 77 67 98 100 20 22 7 5 3 4 22 5 5 5 5
85 60 100 100 98 86 100 94 71 67 61 5 5 17 57 65 9 76 99 16 96 99 89 99 47 96 54 5 57 48 5 5 5 32 18 5 5 2
50 35 79 90 47 31 16 10 5 5 5 5 90 95 84 75 14 76 42 100 84 42 100 23 13 10 71 70 89 5 9 94 5 9 5 5 5 2
17 38 16 7 13 5 62 30 30 45 61 59 26 14 54 83 100 100 52 100 54 38 100 5 5 5 15 90 5 5 5 7 5 5 10 5 5 1
55 6 5 5 5 5 7 61 88 74 52 45 83 96 79 18 90 100 100 98 93 15 100 12 26 6 5 5 5 14 95 29 66 5 5 26 50 21
11 5 8 5 5 8 5 12 7 19 13 87 65 9 5 5 5 12 34 37 100 68 100 87 36 5 5 5 4 16 59 79 24 22 5 71 100 100
5 5 92 44 99 24 21 5 8 7 32 61 81 38 24 5 5 5 16 100 100 100 100 100 96 5 100 68 5 6 9 7 57 16 5 5 5 5
69 100 92 94 100 48 64 61 80 52 12 63 100 100 97 51 6 10 75 99 100 72 100 100 35 16 90 33 5 69 27 88 53 17 5 5 61 5
100 97 97 92 100 100 100 100 100 59 60 89 90 96 100 100 22 79 78 96 100 94 100 97 6 46 34 5 5 88 80 82 40 22 5 5 87 92
100 100 100 100 100 100 100 100 96 100 100 93 100 92 81 99 100 77 54 100 100 100 100 86 75 81 39 5 10 89 56 100 20 5 58 25 28 84
100 100 100 100 100 100 100 100 100 99 67 100 100 98 94 96 100 99 100 100 100 100 100 100 100 26 23 58 5 59 32 92 77 58 91 92 97 93
100 100 100 100 100 100 100 100 72 6 70 100 100 100 100 92 87 98 100 100 100 100 100 100 69 52 85 73 29 26 43 76 48 32 98 6 14 54
100 100 100 100 100 76 25 82 5 5 30 84 100 100 100 100 100 100 100 100 78 87 97 86 100 92 54 100 75 70 45 59 51 78 18 50 83 100
100 100 100 68 48 5 23 64 82 80 42 96 100 100 100 100 100 100 100 100 100 81 93 100 100 100 82 100 92 61 56 65 100 52 10 31 7 93
100 100 93 68 24 10 47 66 75 40 92 93 100 100 100 100 100 100 100 100 100 100 100 100 100 94 60 100 100 93 100 100 91 72 55 8 29 58
100 98 70 78 40 26 48 11 79 79 20 49 84 98 100 100 100 100 100 100 100 100 100 90 99 99 84 100 100 79 100 100 94 92 42 71 63 62
97 96 94 73 56 36 61 28 99 73 38 99 74 99 100 100 100 100 100 100 100 100 99 100 95 86 100 100 100 90 100 100 100 100 82 51 84 40
100 100 88 83 72 54 8 94 49 27 41 91 100 100 100 100 100 100 100 100 100 100 96 99 95 100 100 100 100 100 100 100 100 100 88 74 99 75

GFSNE_prec_cloud_078.txt.gz
Cloud_Cover
100 55 100 100 100 100 100 100 100 100 100 100 100 100 100 100 100 32 23 5 5 5 5 5 5 5 5 5 2 1 0 0 3 0 5 5 5 36
100 91 82 97 100 100 100 100 100 100 100 100 100 100 100 81 54 50 10 5 4 0 4 5 5 5 5 27 98 68 97 96 3 0 4 5 15 94
86 100 100 100 100 100 100 100 100 94 98 100 99 100 100 91 62 5 5 3 0 0 5 5 5 5 90 98 93 95 70 100 63 0 1 5 5 100
100 100 100 100 100 100 100 100 90 27 33 59 100 100 98 87 42 7 5 5 5 5 5 5 5 5 28 45 99 44 5 100 100 5 0 0 5 5
100 100 100 100 100 100 100 96 86 95 37 11 46 27 23 11 5 5 5 5 11 32 93 57 73 51 29 40 18 39 100 83 100 7 1 1 0 5
100 99 100 100 100 100 85 53 29 11 13 40 7 5 5 5 5 5 5 5 5 8 5 17 100 50 93 100 100 81 46 100 100 20 5 5 5 5
100 100 100 98 90 47 9 5 5 13 5 5 7 33 5 5 5 5 17 10 5 25 43 5 48 87 34 100 100 13 5 95 41 96 82 10 5 5
100 100 64 6 55 39 34 42 22 5 5 5 5 5 5 5 5 5 33 100 97 68 34 5 89 26 42 100 95 85 100 100 72 5 5 34 78 5
13 29 66 26 7 7 5 5 5 5 4 5 5 5 5 5 8 36 5 57 99 98 100 58 68 63 10 100 44 100 100 10 5 5 5 44 94 5
76 100 99 43 5 5 8 15 66 100 67 58 42 59 100 100 100 22 49 40 28 8 41 92 68 27 82 57 100 74 10 5 5 5 5 57 87 6
100 84 39 43 33 11 11 14 53 82 96 68 100 100 100 100 99 94 75 82 26 20 5 41 11 66 99 59 100 100 9 5 5 5 5 54 15 6
48 69 79 60 69 23 5 16 28 19 59 100 100 100 100 100 100 100 93 100 90 95 53 61 92 100 100 100 100 100 5 5 5 5 32 38 64 5
99 84 41 19 5 52 87 5 7 97 100 100 100 100 100 100 100 100 100 100 100 96 26 99 92 100 100 100 100 26 5 31 69 5 5 84 30 5
100 100 98 78 66 65 62 50 100 100 100 100 100 100 100 100 96 88 100 100 100 99 76 98 100 100 100 100 46 5 5 5 5 74 21 63 18 5
100 100 100 100 100 100 100 100 100 100 100 100 100 100 92 94 80 92 13 100 96 100 100 100 100 100 100 80 94 35 5 34 30 64 84 73 8 67
100 100 100 100 100 100 100 100 100 100 100 100 89 99 76 99 100 100 100 76 100 80 100 100 100 100 97 100 72 16 42 89 95 98 96 31 94 98
100 100 100 100 100 100 100 100 100 100 100 97 74 100 100 100 100 100 100 88 100 90 99 100 100 100 100 100 90 5 64 96 100 82 80 97 53 90
100 100 100 100 100 100 100 100 100 100 97 40 88 98 100 100 100 100 96 99 100 100 100 100 100 100 100 88 91 5 73 100 97 98 71 89 23 62
100 100 100 100 100 100 100 100 100 74 86 82 73 100 100 100 100 100 100 100 100 97 95 100 100 100 100 99 94 42 98 95 100 75 62 83 67 26
100 100 100 100 100 100 99 68 53 71 89 14 45 80 22 100 100 100 100 100 100 100 100 100 100 100 87 40 58 76 100 100 100 91 67 68 40 5
100 100 100 100 100 100 100 90 80 100 56 40 34 77 94 99 98 100 100 100 100 100 100 100 100 99 98 100 88 100 100 100 99 95 73 77 87 40
100 100 100 100 100 100 94 99 100 55 8 49 100 98 100 44 100 94 100 100 100 100 100 100 100 99 100 58 100 100 100 100 100 100 86 86 87 80
100 100 100 100 100 93 98 95 50 34 32 79 100 91 100 100 100 100 100 100 100 100 100 100 100 99 72 100 100 100 100 100 100 100 94 84 97 17

GFSNE_prec_cloud_081.txt.gz
Cloud_Cover
100 88 80 100 100 100 100 100 100 100 100 100 100 98 100 54 54 21 31 77 5 5 10 5 5 5 5 5 3 4 5 14 5 32 19 5 5 5
90 99 100 94 98 100 100 100 100 89 100 100 99 98 83 73 67 90 7 5 10 11 5 5 2 5 0 1 4 5 5 56 26 99 96 39 5 18
100 100 100 99 100 100 100 100 100 100 100 100 100 100 100 87 76 28 66 77 58 5 5 5 5 5 5 5 5 5 5 24 85 96 5 69 54 80
100 100 100 100 100 100 100 100 100 100 100 100 100 100 100 100 100 79 79 5 5 10 5 5 39 76 42 24 82 100 98 96 100 24 98 17 33 7
100 100 100 100 100 100 100 100 100 100 100 100 100 100 100 93 100 69 8 22 72 100 91 83 21 93 66 21 5 10 84 100 98 100 90 100 80 36
100 100 100 100 100 99 97 100 94 100 100 100 96 99 100 62 13 20 19 75 44 87 47 9 96 27 36 18 5 44 67 90 100 100 100 79 75 48
100 100 100 100 100 100 100 100 60 100 97 96 99 87 55 38 60 18 24 5 19 19 48 100 20 5 99 16 14 98 84 100 100 91 24 92 95 98
100 100 100 100 100 100 89 66 100 100 96 72 74 7 42 67 5 5 5 5 5 27 63 5 6 5 5 5 32 100 100 5 54 31 94 98 29 5
100 100 100 100 96 8 24 5 48 25 63 11 66 36 7 20 5 5 14 47 75 37 12 39 5 5 5 5 62 100 100 68 44 99 100 27 5 5
100 100 100 84 73 77 18 5 69 85 64 23 6 14 5 23 69 100 100 100 100 70 5 70 26 5 5 5 37 87 100 100 100 100 10 5 5 4
100 100 100 99 100 95 70 98 96 97 88 82 77 99 100 90 75 100 100 100 100 57 94 69 52 6 5 5 5 28 100 100 100 11 29 5 5 5
100 100 100 100 90 78 98 100 100 100 100 100 100 100 100 100 100 100 100 100 100 90 100 85 57 81 99 28 77 92 100 100 85 98 76 100 45 5
100 100 100 100 100 100 100 100 100 96 100 100 99 100 100 100 100 100 100 100 100 100 100 100 80 82 95 93 78 100 100 58 57 73 96 12 5 21
100 100 100 100 100 100 100 99 99 92 71 79 100 94 100 100 100 100 100 100 100 100 59 100 99 91 95 100 100 100 100 100 100 16 5 4 40 100
100 100 100 100 100 98 100 99 89 89 100 100 100 100 100 100 100 100 100 100 100 50 70 100 100 100 100 100 100 100 100 100 73 5 5 32 100 62
100 100 100 100 100 100 100 100 100 100 100 100 100 100 100 100 100 100 100 100 97 22 5 92 99 100 100 100 100 100 100 96 11 8 90 100 87 98
100 100 100 100 100 100 100 100 100 100 100 100 100 100 100 100 100 100 100 100 100 100 79 91 96 100 97 100 100 100 100 6 5 5 39 100 94 50
100 100 100 100 100 100 100 100 100 100 100 100 100 100 100 100 95 100 100 100 100 100 100 72 100 100 100 92 100 100 73 8 44 23 100 100 93 97
100 100 100 100 100 100 100 100 100 100 100 100 100 100 99 100 100 100 100 100 100 100 99 98 100 100 100 100 100 100 71 5 15 79 100 100 100 100
100 100 100 100 100 100 100 100 100 100 100 100 100 98 89 100 100 100 94 100 100 100 95 100 100 100 98 100 99 97 46 17 48 100 76 100 100 97
100 100 100 100 100 100 100 100 100 100 100 90 65 86 97 99 100 100 100 100 100 100 100 100 100 100 100 100 100 100 85 19 84 100 98 100 100 100
100 100 100 100 100 100 100 100 96 96 23 70 83 98 90 87 100 100 100 100 100 100 100 100 100 100 100 100 97 47 94 45 100 100 100 100 100 100
100 100 100 99 71 96 89 97 100 98 70 65 98 96 66 100 100 100 100 100 100 100 100 100 100 100 100 100 80 93 9 99 100 100 100 100 100 100

GFSNE_prec_cloud_084.txt.gz
Cloud_Cover
100 100 100 99 91 100 100 100 100 100 100 100 100 100 100 100 100 98 100 100 100 100 100 100 100 79 35 5 5 5 1 1 38 16 18 18 16 98
100 100 100 100 100 100 100 100 100 100 100 100 100 100 100 99 100 86 100 100 100 100 100 100 92 16 5 5 5 5 5 5 5 34 26 97 20 100
100 100 100 100 100 100 100 100 100 100 100 100 100 100 100 100 97 100 100 100 100 100 100 75 56 60 6 10 21 28 5 5 5 13 42 95 100 100
100 100 100 100 100 100 100 100 100 100 100 100 100 100 100 100 100 100 100 100 100 91 89 100 80 19 6 15 38 100 26 5 5 22 7 96 100 100
100 100 100 100 100 100 100 100 100 100 100 100 99 90 100 100 100 100 100 100 100 100 100 100 97 84 100 100 100 89 12 8 5 5 8 95 100 100
100 100 100 100 100 100 99 96 100 100 98 100 100 100 100 99 98 100 100 88 100 100 100 100 100 100 100 100 98 31 5 26 19 7 100 100 100 100
100 100 100 100 100 100 100 100 100 100 100 100 100 100 97 100 58 72 68 60 85 86 100 100 100 100 100 100 45 5 5 97 72 92 100 78 91 100
100 100 100 100 100 100 100 100 100 100 100 100 100 100 87 98 85 84 25 5 44 82 100 100 100 100 100 9 14 6 8 5 46 100 100 100 100 73
100 100 100 100 100 100 100 100 100 100 100 100 100 100 100 100 95 82 68 92 100 94 100 100 87 5 5 5 28 14 8 83 100 99 100 94 100 50
100 100 100 100 100 100 100 100 97 97 100 100 100 100 100 100 100 92 88 64 34 75 100 95 28 5 5 7 81 6 35 100 43 51 100 100 72 83
100 100 100 100 100 100 100 100 100 100 100 100 100 83 95 100 100 87 81 68 62 67 78 97 59 10 12 94 96 99 100 8 85 76 86 94 100 64
100 100 100 100 100 100 100 100 100 100 100 100 100 100 100 100 100 99 65 99 100 44 33 85 96 100 97 100 100 100 42 95 79 96 78 100 99 90
100 100 100 96 89 91 98 100 100 100 100 100 100 100 100 100 100 100 100 100 100 98 100 100 100 100 100 100 65 5 57 89 97 100 100 100 100 90
100 100 100 100 100 100 100 100 100 100 100 100 100 100 100 100 100 100 100 100 100 100 100 100 100 100 100 100 74 5 24 95 20 96 67 100 100 6
100 100 100 100 100 100 100 100 100 100 100 100 100 100 100 100 100 100 100 100 100 100 100 100 93 86 100 100 94 55 100 31 95 89 100 97 13 5
100 100 100 100 100 100 99 100 99 99 100 100 100 100 100 100 100 100 100 100 100 99 72 5 5 30 100 100 100 99 86 62 60 100 94 5 5 88
100 100 100 100 100 100 100 100 100 100 100 100 100 100 100 100 100 100 96 92 92 78 5 5 5 5 66 100 100 89 100 100 100 100 19 5 5 55
100 100 100 100 100 100 100 100 100 100 100 100 100 100 100 100 99 93 100 93 84 27 45 6 31 63 97 100 99 100 100 100 97 12 5 6 87 28
97 100 100 97 100 100 100 100 100 100 100 100 100 100 100 100 100 100 100 96 95 71 24 99 100 100 100 100 95 100 100 100 100 30 6 64 98 80
99 99 99 100 100 100 100 100 100 100 100 98 90 69 62 100 100 100 100 100 100 99 100 99 92 100 100 100 100 100 100 100 96 28 7 16 98 95
100 100 100 100 100 100 100 95 83 97 82 94 54 72 69 100 100 100 100 100 100 100 100 86 41 100 100 100 100 100 100 100 58 55 6 87 100 100
86 100 100 100 100 99 92 97 99 98 88 93 96 88 96 100 100 100 100 100 100 100 100 100 92 100 100 100 100 100 92 100 34 54 67 100 100 100
98 98 95 89 85 79 90 98 98 100 84 70 94 100 100 100 100 100 100 100 100 100 100 100 100 100 100 100 100 100 100 62 18 58 100 100 100 100

GFSNE_prec_cloud_087.txt.gz
Cloud_Cover
88 100 100 100 100 100 100 100 100 100 100 100 100 100 100 100 100 100 95 53 97 100 100 51 89 100 100 100 100 100 100 92 83 46 5 5 6 13
100 100 100 100 100 100 100 100 100 100 100 100 100 100 100 100 99 100 100 100 100 100 100 100 100 100 100 100 100 99 98 100 95 9 5 11 5 11
100 100 100 100 100 100 100 100 100 100 100 100 100 100 100 100 100 100 100 100 100 100 100 100 100 100 100 100 100 100 15 42 5 5 49 68 96 98
100 100 100 100 100 100 100 100 100 100 100 100 100 100 100 100 100 100 100 100 100 100 100 100 100 100 95 71 52 33 71 8 78 100 100 100 39 25
100 100 100 100 100 100 100 100 100 100 100 100 100 100 100 100 100 100 100 100 100 100 100 100 100 100 100 61 14 6 85 99 99 100 100 100 77 5
100 100 100 100 100 100 100 100 100 100 100 100 100 100 100 93 88 88 93 100 100 100 100 100 100 100 100 100 57 49 100 100 100 100 100 86 5 5
100 100 100 100 100 100 100 100 100 100 100 100 100 100 87 92 92 71 76 100 100 100 100 100 100 100 100 100 97 100 100 100 100 100 100 18 45 5
100 100 100 100 100 100 100 100 100 100 100 100 99 99 93 100 100 100 65 43 57 74 100 100 100 100 100 100 100 100 100 74 88 99 5 5 6 97
100 100 100 100 100 100 100 100 100 100 100 100 100 100 99 100 92 73 100 76 66 94 65 93 100 100 100 100 100 100 100 55 25 5 5 26 100 95
100 100 100 100 100 100 100 100 100 100 100 100 100 100 99 100 100 85 97 80 83 100 100 77 100 100 89 91 100 100 93 5 5 42 98 98 96 100
100 100 100 100 100 100 100 100 100 100 100 100 100 100 100 99 99 80 84 99 100 100 100 92 97 59 73 99 100 100 100 77 83 100 77 8 100 99
100 100 100 100 100 100 100 100 100 100 100 100 100 100 96 90 100 90 100 100 100 66 100 100 100 100 63 67 57 95 100 100 99 17 35 31 94 99
100 100 100 100 100 100 100 100 100 100 100 100 100 100 100 100 100 100 100 100 100 100 100 100 39 87 98 39 98 100 100 90 80 71 98 100 100 100
100 100 100 100 100 100 100 100 100 100 100 100 100 100 100 100 100 100 100 100 100 100 100 100 98 100 100 100 100 95 98 99 51 75 96 100 100 100
100 100 100 100 100 100 100 100 85 93 100 100 100 100 100 100 100 100 100 100 100 100 100 100 100 100 100 100 98 72 94 100 87 38 100 100 100 100
100 100 96 88 80 99 97 94 100 100 100 100 100 100 100 100 100 100 100 100 100 100 100 100 100 95 99 100 100 75 95 100 99 29 100 100 100 59
100 100 100 100 100 100 100 100 100 100 100 100 100 100 100 100 100 100 100 98 85 26 5 76 58 70 85 98 100 89 95 100 100 97 85 100 100 99
93 100 100 100 100 100 100 100 100 100 100 100 100 100 100 100 100 100 100 100 100 98 43 28 56 70 63 71 95 97 98 100 93 100 100 100 100 100
100 100 100 100 100 100 100 100 100 100 100 100 100 100 100 100 100 100 100 100 100 100 100 100 100 100 100 100 74 99 100 100 100 100 100 100 100 100
100 100 100 100 100 100 100 100 100 100 100 100 100 100 100 100 100 100 100 100 100 100 100 100 100 100 100 100 100 72 88 100 100 100 100 99 96 60
100 100 100 100 100 100 100 100 100 100 100 100 100 100 100 100 100 100 100 100 100 100 100 100 100 100 100 100 100 100 100 100 100 100 99 100 100 99
100 100 100 100 100 100 100 100 100 100 100 100 100 100 100 100 100 100 100 100 100 100 100 100 100 100 100 100 100 100 100 100 100 100 100 69 90 100
100 100 100 100 100 100 100 100 100 100 100 100 100 100 100 100 100 100 100 100 100 100 100 100 100 100 100 100 100 100 100 100 100 100 89 86 93 100

GFSNE_prec_cloud_093.txt.gz
Cloud_Cover
100 100 100 100 100 100 100 100 66 100 100 100 100 100 100 100 100 100 100 100 100 66 100 100 100 100 57 84 44 97 38 50 100 83 20 5 32 92
100 100 100 100 100 95 100 91 96 100 100 100 72 96 98 100 95 100 100 100 100 100 100 100 100 100 100 100 100 43 88 45 100 100 44 84 100 57
78 100 98 100 100 100 100 86 100 100 100 100 100 84 100 89 100 100 100 100 100 100 100 100 100 100 100 100 100 100 100 100 100 100 100 100 98 100
63 78 92 100 100 81 83 99 100 100 100 100 100 100 97 100 96 100 100 100 100 100 100 100 100 100 100 100 100 100 100 100 100 100 100 100 100 100
99 88 100 100 100 100 100 100 100 100 100 100 100 100 100 100 100 100 100 100 100 100 100 100 100 100 100 100 100 100 100 96 100 100 100 100 100 100
83 100 100 100 100 100 100 100 100 100 100 100 100 100 100 100 100 100 100 100 100 100 100 100 100 100 100 100 100 100 100 100 100 100 100 100 100 100
100 100 100 100 100 100 100 100 100 100 100 100 100 100 100 100 100 100 100 100 100 100 100 100 100 100 100 100 100 100 100 100 100 100 100 100 100 100
100 100 100 100 100 100 100 100 100 100 100 100 100 100 100 100 100 100 100 100 100 100 100 100 100 100 100 100 100 100 100 100 100 100 100 100 100 100
100 100 100 100 100 100 100 100 100 100 100 100 100 100 100 100 100 100 100 100 100 100 100 86 100 100 100 100 100 100 100 100 100 100 100 100 100 100
100 100 100 100 100 100 100 100 100 100 100 100 100 100 100 100 100 100 100 100 100 100 100 100 100 100 100 100 100 100 100 100 100 100 100 100 100 100
100 100 100 100 100 100 100 100 100 100 100 100 100 100 100 100 100 100 100 100 100 100 100 100 100 98 46 17 49 99 100 100 100 100 100 100 100 100
100 100 100 100 100 100 100 100 100 100 100 100 100 100 100 100 100 100 100 100 99 92 100 100 100 100 100 54 88 100 100 98 100 100 100 100 100 98
100 100 100 100 100 100 100 100 100 100 100 100 100 100 95 99 100 100 100 100 100 100 98 100 100 100 100 92 5 20 99 100 100 52 100 100 100 100
100 100 100 100 100 100 100 100 100 100 100 100 100 100 100 100 100 100 97 100 100 100 100 100 100 100 100 100 52 6 100 100 100 99 100 100 100 80
100 100 100 100 100 100 100 100 98 100 100 100 100 100 100 100 100 100 100 100 100 100 100 100 100 100 100 100 97 62 100 100 100 100 100 100 100 96
100 100 100 100 100 100 100 100 100 100 100 100 100 100 100 100 100 100 100 100 100 100 100 100 100 100 100 100 100 76 93 100 100 100 100 100 99 100
100 100 100 100 100 100 100 100 100 100 100 100 99 100 100 100 100 100 100 100 100 100 94 100 100 100 100 100 97 100 90 100 100 100 100 30 41 100
100 100 100 100 100 100 100 100 100 100 100 100 100 100 100 100 100 100 100 100 100 100 100 100 100 100 98 65 100 100 100 100 100 100 100 100 94 100
100 97 100 100 100 96 100 100 100 100 100 100 100 100 100 100 100 100 100 100 100 100 100 100 100 100 100 99 100 100 100 83 19 7 68 63 100 100
100 94 100 100 100 100 100 100 100 100 100 100 100 100 100 100 100 100 100 100 100 100 100 100 100 100 100 100 81 6 9 17 8 56 64 100 100 100
100 91 100 100 100 100 100 100 100 100 100 100 100 100 100 100 100 100 100 100 100 100 100 100 100 100 100 100 97 100 100 99 100 100 100 100 100 100
100 100 100 100 100 100 100 100 100 100 100 100 100 100 100 100 100 100 100 100 100 100 100 100 100 100 100 100 100 100 100 99 100 100 100 100 100 100
100 100 100 100 100 100 100 100 100 100 100 100 100 100 100 100 100 100 100 100 100 100 100 100 100 100 100 100 100 100 100 100 100 100 100 100 100 100

GFSNE_prec_cloud_096.txt.gz
Cloud_Cover
100 100 100 100 100 100 100 100 100 98 100 100 100 71 86 100 100 77 100 97 100 100 100 100 100 100 100 100 100 49 65 92 100 100 100 100 100 100
100 100 100 100 100 100 100 100 100 79 100 100 93 72 70 91 100 99 100 100 85 100 100 100 100 100 100 100 97 92 100 34 94 100 100 100 100 100
100 100 100 100 100 100 99 100 94 95 100 100 48 100 100 36 100 65 100 66 88 83 100 100 100 100 100 100 100 100 100 100 100 100 100 100 100 100
100 100 100 95 98 100 97 100 100 100 100 100 99 100 100 99 100 100 99 100 98 100 100 100 100 100 100 100 100 100 100 100 100 100 100 100 100 100
100 97 98 100 100 100 100 100 100 100 100 100 100 100 100 100 100 100 100 100 100 100 100 100 100 100 100 100 100 100 100 100 100 100 100 100 100 100
100 100 73 94 100 100 100 100 100 100 100 100 100 100 100 100 100 100 98 100 100 100 100 100 100 100 100 100 100 100 100 100 100 100 100 100 100 100
100 100 100 100 100 100 100 100 100 100 100 100 100 100 100 100 100 100 100 100 100 100 100 100 100 100 100 100 100 100 100 100 100 100 100 100 100 100
100 100 100 100 100 100 100 100 100 100 100 100 100 100 100 100 100 100 100 100 100 100 100 100 100 100 100 100 100 100 100 100 100 100 100 100 100 100
100 100 100 100 100 100 100 100 96 90 100 100 100 100 100 100 100 100 100 100 100 100 100 100 100 100 100 100 100 100 100 100 100 100 100 100 100 100
100 100 100 100 100 100 100 100 100 100 100 99 100 100 100 100 100 100 100 100 100 100 100 100 100 100 100 100 100 100 100 100 100 100 100 100 100 100
100 100 100 100 100 100 100 100 100 100 100 100 100 100 99 100 100 100 100 100 100 100 100 100 100 100 58 21 62 90 97 100 95 97 100 100 100 100
100 100 100 100 100 100 100 100 100 100 100 100 99 97 100 100 100 100 100 100 100 100 97 48 27 92 45 5 30 24 100 100 100 100 100 100 100 100
100 100 100 100 100 100 100 92 100 100 94 47 100 92 97 99 100 95 92 99 93 91 81 100 91 33 92 76 5 5 20 88 100 100 100 100 100 100
100 100 100 100 100 100 100 100 100 100 100 100 100 82 90 53 71 42 13 41 10 98 100 100 100 100 100 100 92 9 3 19 78 100 100 100 100 100
100 100 100 100 100 100 96 99 98 91 97 99 33 71 75 5 5 5 9 5 3 5 2 7 68 92 100 100 100 89 94 21 81 100 100 100 100 100
100 100 100 100 100 100 100 97 97 76 27 19 90 25 5 5 5 5 5 5 5 5 0 0 18 100 100 94 100 94 84 87 5 100 100 100 100 100
100 100 100 100 100 100 100 43 5 5 5 5 6 68 14 5 5 4 5 5 5 5 10 5 5 5 4 7 78 63 98 100 100 100 100 100 100 100
100 100 100 100 100 88 71 41 20 6 21 40 7 10 5 5 5 27 38 31 45 68 59 5 5 3 5 2 94 100 68 74 6 35 100 100 100 100
100 100 75 91 77 93 98 46 77 97 24 32 8 15 37 56 62 42 83 67 5 5 5 5 79 100 100 100 5 88 12 5 5 54 100 100 95 99
100 100 100 100 97 77 92 17 91 56 6 5 37 74 89 61 100 99 30 5 16 10 64 80 92 100 100 100 100 76 58 100 100 100 35 10 40 100
100 100 100 100 100 93 54 12 5 5 28 46 98 75 88 100 56 5 31 8 61 98 100 98 62 100 100 99 56 52 5 50 100 100 98 100 100 100
100 100 100 79 27 6 5 6 5 39 92 93 85 99 60 5 5 52 62 99 100 100 100 51 84 100 100 100 100 91 7 68 100 92 100 100 100 100
100 99 55 61 5 5 5 7 72 99 100 100 86 5 5 52 57 66 99 99 93 99 100 100 70 40 100 100 100 100 100 92 100 100 100 100 100 100